Regional Weather Roundup
Issued by NWS

Home | Current Version | Previous Version | Graphics & Text | Print | Product List | Glossary On
Versions: 1 2 3 4 5 6 7 8 9 10 11 12 13 14 15 16 17 18 19 20 21 22 23 24 25 26 27 28 29 30 31 32 33 34 35 36 37 38 39 40 41 42 43 44 45 46 47 48 49 50
000
ASUS43 KMPX 051110
RWRMN
WEATHER ROUNDUP FOR MINNESOTA
NATIONAL WEATHER SERVICE TWIN CITIES/CHANHASSEN MN
600 AM CDT TUE MAY 05 2015


NOTE: "FAIR" INDICATES FEW OR NO CLOUDS BELOW 12,000 FEET WITH NO
SIGNIFICANT WEATHER AND/OR OBSTRUCTIONS TO VISIBILITY. N/A MEANS
CURRENT SKY AND/OR WEATHER CONDITIONS ARE NOT AVAILABLE.

MNZ060>063-068>070-051200-
   Twin Cities Metro

CITY           SKY/WX    TMP DP  RH WIND       PRES   REMARKS
TWIN CITIES    PTCLDY    52  30  43 NE8       30.18S
ST PAUL        CLEAR     51  32  48 E8        30.20R
CRYSTAL        CLEAR     44  32  62 CALM      30.18S
BLAINE         CLEAR     48  34  57 E6        30.19S
LAKEVILLE      PTCLDY    45  32  61 NE3       30.17S
EDEN PRAIRIE   CLEAR     50  30  46 NE6       30.17S
SOUTH ST PAUL  CLEAR     51  31  46 E5        30.19R
LAKE ELMO      FAIR      46  34  61 E7        30.21R
$$
MNZ001>005-007-008-013>017-022>024-027-028-051200-
   Northwest Minnesota

CITY           SKY/WX    TMP DP  RH WIND       PRES   REMARKS
BEMIDJI        CLEAR     31  25  79 CALM      30.22S
HALLOCK        CLEAR     39  21  48 SE9       30.15S
ROSEAU         CLEAR     43  28  56 S7        30.18F
WARROAD        CLEAR     46  30  53 S5        30.19S
THIEF RVR FALL CLEAR     45  27  49 SE8       30.19S
CROOKSTON      CLEAR     39  28  65 S9        30.18S
FOSSTON        CLEAR     43  27  52 SE6       30.20S
DETROIT LAKES  CLEAR     46  30  53 SE6       30.21S
MOORHEAD       FAIR      45  30  57 SE3       30.19R
PARK RAPIDS    CLEAR     36  30  79 CALM      30.21S
MAHNOMEN       FAIR      47  25  41 SE10      30.19S
$$
MNZ006-009>011-018-025>026-051200-
   North Central Minnesota

CITY           SKY/WX    TMP DP  RH WIND       PRES   REMARKS
BAUDETTE       CLEAR     37  31  78 SE5       30.21S
FLAG ISLAND    CLEAR     48  37  66 S9        30.17F
INTL FALLS     CLEAR     28  26  92 CALM      30.23S
WASKISH        FAIR      39  28  65 CALM      30.21S
BIG FORK       CLEAR     28  25  86 CALM      30.24S
LONGVILLE      CLEAR     30  28  93 CALM      30.23S
GRAND RAPIDS   CLEAR     32  23  69 S3        30.24S
CRANE LAKE     CLEAR     27  25  93 CALM      30.27S
ORR            CLEAR     36  25  64 CALM      30.23S
COOK           CLEAR     27  25  93 CALM      30.25S FOG
WALKER         FAIR      34  29  83 CALM      30.22S
$$
MNZ012-019>021-037-051200-
   Northeast Minnesota

CITY           SKY/WX    TMP DP  RH WIND       PRES   REMARKS
DULUTH         CLEAR     44  25  47 E5        30.25S
ELY            CLEAR     28  27  93 CALM      30.26S
HIBBING        CLEAR     26  23  88 N3        30.25S
EVELETH        CLEAR     28  28 100 CALM      30.26S
DULUTH HARBOR  CLEAR     39  34  81 NE3       30.27S
TWO HARBORS    CLEAR     34  28  80 CALM      30.25R
SILVER BAY     CLEAR     30  27  86 CALM      30.26R
GRAND MARAIS     N/A     36  29  75 N5        30.27F
G MARAIS ARPRT CLEAR     30  25  80 N3        30.29R
$$
MNZ029>031-032-039>041-046>048-054>057-064-051200-
   West Central Minnesota

CITY           SKY/WX    TMP DP  RH WIND       PRES   REMARKS
FERGUS FALLS   CLEAR     52  27  37 E6        30.19F
WHEATON        CLEAR     36  27  69 SE7       30.19S
MORRIS         CLEAR     45  27  49 E9        30.17S
ALEXANDRIA     CLEAR     48  24  39 E8        30.20S
ELBOW LAKE     FAIR      50  30  46 E8        30.18S
WADENA         CLEAR     36  27  69 E5        30.21S
GLENWOOD       CLEAR     45  25  45 E8        30.19S
APPLETON       CLEAR     43  28  56 E5        30.17S
BENSON         CLEAR     48  21  34 E6        30.18S
ORTONVILLE     CLEAR     45  28  53 CALM      30.17S
MADISON        CLEAR     39  28  65 CALM      30.17R
WILLMAR        FAIR      52  27  37 E9        30.19R
$$
MNZ033>034-036-042>043-049>051-058-059-051200-
   Central Minnesota

CITY           SKY/WX    TMP DP  RH WIND       PRES   REMARKS
ST CLOUD       CLEAR     47  23  38 E3        30.20S
SAUK CENTRE    FAIR      46  25  44 E7        30.20S
PAYNESVILLE    CLEAR     37  29  71 CALM      30.19S
AITKIN         CLEAR     30  25  80 CALM      30.22S
PINE RIVER     CLEAR     28  27  93 CALM      30.26R
BRAINERD       CLEAR     34  32  92 NE3       30.23S
STAPLES        CLEAR     34  28  80 CALM      30.22S
LONG PRAIRIE   FAIR      37  32  81 N3        30.20F
LITTLE FALLS   CLEAR     36  27  69 CALM      30.21S
LITCHFIELD     CLEAR     48  27  43 E6        30.19S
BUFFALO        CLEAR     46  27  48 NE5       30.19F
MAPLE LAKE     CLEAR     47  29  50 NE3       30.20S
$$
MNZ037-044-045-052-053-051200-
   East Central Minnesota

CITY           SKY/WX    TMP DP  RH WIND       PRES   REMARKS
PRINCETON      CLEAR     43  27  52 CALM      30.21S
MORA           CLEAR     36  27  69 CALM      30.23F
CAMBRIDGE      CLEAR     39  28  65 CALM      30.19S
RUSH CITY      PTCLDY    44  28  52 NE5       30.22S
MOOSE LAKE     CLEAR     36  27  69 NE5       30.23S
HINCKLEY       FAIR      36  28  75 CALM      30.23S
CLOQUET        FAIR      30  25  80 CALM      30.25S
MCGREGOR       CLEAR     32  28  86 CALM      30.24S
$$
MNZ071>073-080-081-089-090-097-098-051200-
   Southwest Minnesota

CITY           SKY/WX    TMP DP  RH WIND       PRES   REMARKS
MONTEVIDEO     CLEAR     43  25  49 SE5       30.17S
GRANITE FALLS  CLEAR     43  26  52 NE5       30.18S
CANBY          PTCLDY    39  30  71 CALM      30.17F
MARSHALL       PTCLDY    41  21  45 NW6       30.15F
REDWOOD FALLS  PTCLDY    50  26  39 NE6       30.16S
OLIVIA         CLEAR     45  25  45 E7        30.16S
PIPESTONE      PTCLDY    48  30  49 E8        30.13F
WINDOM         CLOUDY    54  32  43 NE6       30.14S
WORTHINGTON    CLOUDY    54  32  43 NE9       30.13F
JACKSON        MOCLDY    54  32  43 NE9       30.12F
TRACY          PTCLDY    48  29  48 CALM      30.15F
SLAYTON        PTCLDY    48  30  48 CALM      30.15S
$$
MNZ065>067-074>077-082>085-091>093-051200-
   South Central Minnesota

CITY           SKY/WX    TMP DP  RH WIND       PRES   REMARKS
MANKATO        FAIR      54  36  50 NE9       30.14F
NEW ULM        PTCLDY    50  28  43 E5        30.15S
ST JAMES       CLOUDY    50  32  50 N7        30.14F
FAIRMONT       CLOUDY    54  30  40 NE6       30.12S
GLENCOE        CLEAR     47  32  56 CALM      30.16S
FARIBAULT      PTCLDY    48  36  61 NE7       30.16S
OWATONNA       PTCLDY    52  34  50 E13       30.14S
WASECA         PTCLDY    52  36  54 NE9       30.14S
ALBERT LEA     CLOUDY    55  41  58 E6        30.14R
$$
MNZ078>079-086>088-094>096-051200-
   Southeast Minnesota

CITY           SKY/WX    TMP DP  RH WIND       PRES   REMARKS
ROCHESTER      MOCLDY    52  42  69 E9        30.17R
RED WING       PTCLDY    52  37  58 E10       30.18R
STANTON        PTCLDY    44  35  70 NE6       30.16S
DODGE CENTER   MOCLDY    52  37  58 E12       30.16R
WINONA         CLOUDY    54  45  71 SE6       30.19R
AUSTIN         RAIN      54  45  71 E7        30.14R
PRESTON        RAIN      52  48  87 E13       30.17R
$$
ABBREVIATIONS USED IN REMARKS
   TC - TEMPERATURES IN CELSIUS
  WCI - WIND CHILL INDEX
   HX - HEAT INDEX
  VSB - VISIBILITY
$$



USA.gov is the U.S. government's official web portal to all federal, state and local government web resources and services.